Home > Weather > Lahore > Past weeks

Flag for Pakistan Past Weather in Lahore, Pakistan — Yesterday and Last 2 Weeks

Now
100 °F

Passing clouds.


Feels Like: 120 °F
Forecast: 89 / 103 °F
Wind: 9 mph from South

Location: Lahore Airport

Current Time: Jun 27, 2016 at 4:30:17 PM

Latest Report: Jun 27, 2016 at 4:00 PM


Visibility: 4 mi

Pressure: 29.45 "Hg

Humidity: 50%

Dew Point: 79 °F

Location of LahoreLocation

Past Weather in Lahore — Graph

°F

Lahore Temperature Yesterday

Maximum temperature yesterday: 99 °F (at 1:59 PM)
Minimum temperature yesterday: 90 °F (at 5:00 AM)
Average temperature yesterday: 94 °F

High & Low Weather Summary for the Past Weeks

 TemperatureHumidityPressure
High109 °F (Jun 14, 2:59 PM)100% (Jun 22, 8:55 AM)29.68 "Hg (Jun 22, 8:55 AM)
Low73 °F (Jun 17, 2:25 AM)26% (Jun 13, 4:55 PM)29.33 "Hg (Jun 15, 3:25 PM)
Average92 °F57%29.53 "Hg
* Reported Jun 12 3:25 PM — Jun 27 3:30 PM, Lahore, Weather by CustomWeather, © 2016

Note: Actual official high and low records may vary slightly from our data, if they occured in-between our weather recording intervals... More about our weather records

Advertising

Lahore Weather History for the Previous 24 Hours

Scroll right to see more
 ConditionsComfort  
Time TempWeatherWind HumidityBarometerVisibility
3:30 PM
Mon, Jun 27
100 °FScattered clouds.12 mph50%29.47 "Hg4 mi
3:00 PM100 °FScattered clouds.9 mph50%29.47 "Hg4 mi
2:30 PM100 °FScattered clouds.9 mph50%29.50 "Hg4 mi
1:55 PM100 °FScattered clouds.8 mph50%29.50 "Hg4 mi
1:25 PM99 °FScattered clouds.7 mph53%29.53 "Hg4 mi
12:55 PM99 °FScattered clouds.7 mph53%29.53 "Hg4 mi
12:25 PM97 °FScattered clouds.12 mph53%29.56 "Hg4 mi
11:55 AM95 °FScattered clouds.14 mph56%29.56 "Hg4 mi
11:25 AM91 °FScattered clouds.16 mph56%29.56 "Hg4 mi
10:55 AM91 °FPassing clouds.14 mph56%29.59 "Hg4 mi
10:25 AM90 °FScattered clouds.16 mph59%29.59 "Hg3 mi
9:55 AM88 °FScattered clouds.17 mph62%29.59 "Hg3 mi
9:25 AM91 °FScattered clouds.16 mph63%29.62 "Hg3 mi
8:55 AM91 °FScattered clouds.12 mph63%29.59 "Hg4 mi
8:25 AM90 °FPassing clouds.9 mph67%29.59 "Hg4 mi
7:55 AM90 °FPassing clouds.10 mph67%29.56 "Hg4 mi
7:25 AM88 °FScattered clouds.10 mph70%29.53 "Hg4 mi
6:55 AM88 °FScattered clouds.9 mph70%29.53 "Hg3 mi
6:25 AM88 °FScattered clouds.6 mph75%29.53 "Hg3 mi
5:55 AM86 °FScattered clouds.7 mph79%29.53 "Hg2 mi
4:55 AM86 °FPassing clouds.9 mph84%29.53 "Hg2 mi
4:25 AM88 °FPassing clouds.6 mph79%29.53 "Hg2 mi
3:55 AM88 °FPassing clouds.6 mph79%29.53 "Hg2 mi
3:25 AM90 °FClear.5 mph75%29.53 "Hg2 mi
2:55 AM90 °FClear.5 mph75%29.53 "Hg2 mi
2:25 AM90 °FClear.5 mph75%29.53 "Hg2 mi
1:25 AM91 °FPassing clouds.5 mph71%29.53 "Hg2 mi
12:55 AM91 °FPassing clouds.6 mph71%29.53 "Hg2 mi
12:25 AM91 °FPassing clouds.5 mph71%29.53 "Hg2 mi
11:55 PM
Sun, Jun 26
91 °FPassing clouds.5 mph71%29.53 "Hg2 mi
11:25 PM91 °FPassing clouds.3 mph71%29.53 "Hg2 mi
10:55 PM93 °FPassing clouds.5 mph67%29.53 "Hg2 mi
9:55 PM93 °FPassing clouds.3 mph67%29.53 "Hg2 mi
9:25 PM95 °FPassing clouds.No wind60%29.50 "Hg2 mi
8:55 PM95 °FPassing clouds.6 mph60%29.50 "Hg2 mi
8:25 PM95 °FPassing clouds.6 mph63%29.47 "Hg2 mi
7:55 PM97 °FPassing clouds.8 mph60%29.47 "Hg2 mi
7:25 PM97 °FPassing clouds.5 mph60%29.47 "Hg2 mi
6:55 PM99 °FScattered clouds.3 mph57%29.50 "Hg2 mi
6:25 PM99 °FScattered clouds.5 mph57%29.47 "Hg2 mi
5:55 PM99 °FScattered clouds.6 mph57%29.50 "Hg2 mi
5:25 PM99 °FScattered clouds.6 mph57%29.50 "Hg2 mi
Weather by CustomWeather, © 2016

See weather overviewHow to use our weather pages